ABY119 OOMS-OMSJ

Flight info

Callsign ABY119
Flight time N/A
Altitude 20000
Route MCT T508 DAPOK T509 PASOV B540 ORKOB T891 NOLSU
Aircraft A320/M-SDE3FGHIRWY/LB1

Departure

Time 2026-05-07 09:22
Airport Muscat International Airport (OOMS)

Arrival

Time N/A
Airport Sharjah International Airport (OMSJ)
Time Latitude Longitude Altitude Speed Heading
2026-05-07 08:37 23.59891 58.28638 45 ft 0 kts 85°
2026-05-07 09:05 23.59890 58.28619 45 ft 2 kts 83°
2026-05-07 09:05 23.59887 58.28602 43 ft 2 kts 81°
2026-05-07 09:06 23.59884 58.28584 43 ft 2 kts 78°
2026-05-07 09:06 23.59881 58.28566 42 ft 2 kts 75°
2026-05-07 09:06 23.59876 58.28549 45 ft 2 kts 70°
2026-05-07 09:06 23.59870 58.28533 45 ft 2 kts 62°
2026-05-07 09:07 23.59861 58.28517 44 ft 2 kts 49°
2026-05-07 09:07 23.59849 58.28505 42 ft 2 kts 26°
2026-05-07 09:07 23.59833 58.28500 43 ft 2 kts
2026-05-07 09:07 23.59826 58.28500 41 ft 0 kts 356°
2026-05-07 09:10 23.59830 58.28499 45 ft 2 kts 356°
2026-05-07 09:10 23.59846 58.28497 45 ft 2 kts 347°
2026-05-07 09:11 23.59855 58.28492 45 ft 1 kts 332°
2026-05-07 09:11 23.59861 58.28488 45 ft 2 kts 328°
2026-05-07 09:11 23.59874 58.28472 45 ft 3 kts 295°
2026-05-07 09:11 23.59876 58.28452 45 ft 2 kts 270°
2026-05-07 09:12 23.59875 58.28434 45 ft 4 kts 265°
2026-05-07 09:12 23.59871 58.28383 45 ft 11 kts 265°
2026-05-07 09:12 23.59862 58.28275 45 ft 17 kts 264°
2026-05-07 09:12 23.59852 58.28144 45 ft 18 kts 263°
2026-05-07 09:13 23.59840 58.28009 43 ft 18 kts 264°
2026-05-07 09:13 23.59820 58.27930 42 ft 7 kts 229°
2026-05-07 09:13 23.59782 58.27897 42 ft 7 kts 219°
2026-05-07 09:13 23.59745 58.27863 43 ft 7 kts 220°
2026-05-07 09:14 23.59708 58.27828 43 ft 7 kts 220°
2026-05-07 09:14 23.59657 58.27782 45 ft 11 kts 220°
2026-05-07 09:14 23.59593 58.27724 45 ft 13 kts 220°
2026-05-07 09:14 23.59541 58.27648 45 ft 13 kts 260°
2026-05-07 09:15 23.59532 58.27546 45 ft 14 kts 265°
2026-05-07 09:15 23.59524 58.27437 42 ft 13 kts 265°
2026-05-07 09:15 23.59558 58.27376 45 ft 10 kts 348°
2026-05-07 09:15 23.59632 58.27369 45 ft 11 kts 355°
2026-05-07 09:16 23.59715 58.27361 45 ft 13 kts 355°
2026-05-07 09:16 23.59805 58.27354 45 ft 13 kts 355°
2026-05-07 09:16 23.59897 58.27346 44 ft 14 kts 356°
2026-05-07 09:16 23.59994 58.27337 45 ft 14 kts 354°
2026-05-07 09:17 23.60090 58.27326 45 ft 14 kts 354°
2026-05-07 09:17 23.60190 58.27315 45 ft 15 kts 356°
2026-05-07 09:17 23.60302 58.27307 45 ft 17 kts 355°
2026-05-07 09:17 23.60411 58.27295 45 ft 13 kts 346°
2026-05-07 09:18 23.60445 58.27233 45 ft 10 kts 260°
2026-05-07 09:18 23.60438 58.27163 45 ft 9 kts 265°
2026-05-07 09:18 23.60433 58.27100 45 ft 8 kts 265°
2026-05-07 09:18 23.60429 58.27045 44 ft 7 kts 265°
2026-05-07 09:19 23.60425 58.26994 45 ft 8 kts 264°
2026-05-07 09:19 23.60418 58.26913 45 ft 13 kts 265°
2026-05-07 09:19 23.60409 58.26797 45 ft 16 kts 265°
2026-05-07 09:19 23.60400 58.26685 45 ft 14 kts 265°
2026-05-07 09:20 23.60392 58.26582 45 ft 13 kts 265°
2026-05-07 09:20 23.60400 58.26515 45 ft 7 kts 308°
2026-05-07 09:20 23.60438 58.26497 45 ft 5 kts 351°
2026-05-07 09:20 23.60478 58.26493 45 ft 8 kts 354°
2026-05-07 09:21 23.60548 58.26487 45 ft 11 kts 355°
2026-05-07 09:21 23.60627 58.26499 45 ft 12 kts 37°
2026-05-07 09:21 23.60656 58.26595 46 ft 18 kts 84°
2026-05-07 09:21 23.60681 58.26892 47 ft 72 kts 83°
2026-05-07 09:22 23.60744 58.27659 44 ft 129 kts 84°
2026-05-07 09:22 23.60837 58.28773 137 ft 164 kts 84°
2026-05-07 09:22 23.60991 58.30032 657 ft 169 kts 73°
2026-05-07 09:22 23.61350 58.31248 1235 ft 170 kts 67°
2026-05-07 09:23 23.61802 58.32464 1710 ft 176 kts 63°
2026-05-07 09:23 23.62294 58.33709 2137 ft 183 kts 63°
2026-05-07 09:23 23.62725 58.34841 2456 ft 194 kts 65°
2026-05-07 09:23 23.63230 58.36273 2717 ft 211 kts 66°
2026-05-07 09:24 23.63763 58.37847 3015 ft 231 kts 67°
2026-05-07 09:24 23.64330 58.39562 3440 ft 248 kts 68°
2026-05-07 09:24 23.64926 58.41395 3891 ft 264 kts 68°
2026-05-07 09:24 23.65545 58.43317 4564 ft 270 kts 69°
2026-05-07 09:25 23.66165 58.45259 5307 ft 273 kts 69°
2026-05-07 09:25 23.66789 58.47225 6079 ft 276 kts 70°
2026-05-07 09:25 23.67493 58.49177 6790 ft 278 kts 58°
2026-05-07 09:25 23.68821 58.50675 7524 ft 278 kts 30°
2026-05-07 09:26 23.70639 58.51380 8226 ft 281 kts
2026-05-07 09:26 23.72584 58.51158 8913 ft 285 kts 339°
2026-05-07 09:26 23.74260 58.50026 9599 ft 288 kts 313°
2026-05-07 09:26 23.75321 58.48181 10216 ft 290 kts 286°
2026-05-07 09:27 23.75723 58.46005 10810 ft 295 kts 278°
2026-05-07 09:27 23.76047 58.43781 11425 ft 301 kts 278°
2026-05-07 09:27 23.76706 58.39194 12706 ft 310 kts 279°
2026-05-07 09:28 23.77044 58.36848 13346 ft 315 kts 279°
2026-05-07 09:28 23.77390 58.34466 13952 ft 320 kts 279°
2026-05-07 09:28 23.77742 58.32062 14556 ft 322 kts 279°
2026-05-07 09:28 23.78091 58.29672 15193 ft 324 kts 280°
2026-05-07 09:29 23.78450 58.27210 15845 ft 325 kts 280°
2026-05-07 09:29 23.78805 58.24804 16480 ft 326 kts 280°
2026-05-07 09:29 23.79166 58.22351 17106 ft 328 kts 281°
2026-05-07 09:29 23.79528 58.19891 17744 ft 329 kts 281°
2026-05-07 09:30 23.79889 58.17409 18330 ft 331 kts 281°
2026-05-07 09:30 23.80252 58.14920 18862 ft 332 kts 281°
2026-05-07 09:30 23.80501 58.13208 19230 ft 333 kts 280°
2026-05-07 09:30 23.80866 58.10705 19657 ft 334 kts 280°
2026-05-07 09:31 23.81229 58.08201 19778 ft 335 kts 280°
2026-05-07 09:31 23.81607 58.05617 19811 ft 355 kts 281°
2026-05-07 09:31 23.82224 58.02940 19809 ft 373 kts 290°
2026-05-07 09:31 23.83141 58.00215 19810 ft 391 kts 291°
2026-05-07 09:32 23.84108 57.97358 19813 ft 409 kts 291°
2026-05-07 09:32 23.85099 57.94412 19816 ft 416 kts 291°
2026-05-07 09:32 23.86095 57.91438 19816 ft 416 kts 291°
2026-05-07 09:32 23.87088 57.88462 19816 ft 417 kts 291°
2026-05-07 09:33 23.88078 57.85493 19814 ft 417 kts 291°
2026-05-07 09:33 23.89068 57.82518 19815 ft 417 kts 290°
2026-05-07 09:33 23.90058 57.79544 19816 ft 416 kts 291°
2026-05-07 09:33 23.91036 57.76605 19817 ft 416 kts 290°
2026-05-07 09:34 23.92027 57.73633 19819 ft 416 kts 290°
2026-05-07 09:34 23.93020 57.70658 19821 ft 416 kts 291°
2026-05-07 09:34 23.94011 57.67689 19820 ft 416 kts 290°
2026-05-07 09:34 23.95001 57.64715 19817 ft 416 kts 290°
2026-05-07 09:35 23.95991 57.61739 19820 ft 416 kts 290°
2026-05-07 09:35 23.96979 57.58764 19818 ft 416 kts 290°
2026-05-07 09:35 23.97965 57.55794 19820 ft 416 kts 290°
2026-05-07 09:35 23.98987 57.52828 19820 ft 416 kts 295°
2026-05-07 09:36 24.00377 57.50070 19819 ft 415 kts 305°
2026-05-07 09:36 24.02204 57.47640 19820 ft 414 kts 315°
2026-05-07 09:36 24.04321 57.45501 19821 ft 414 kts 318°
2026-05-07 09:36 24.06444 57.43373 19819 ft 414 kts 317°
2026-05-07 09:37 24.08562 57.41236 19824 ft 414 kts 317°
2026-05-07 09:37 24.10674 57.39102 19825 ft 414 kts 317°
2026-05-07 09:37 24.12782 57.36963 19822 ft 414 kts 317°
2026-05-07 09:37 24.14890 57.34823 19821 ft 414 kts 317°
2026-05-07 09:38 24.16976 57.32709 19819 ft 413 kts 317°
2026-05-07 09:38 24.19123 57.30496 19793 ft 414 kts 317°
2026-05-07 09:38 24.21200 57.28364 19799 ft 414 kts 317°
2026-05-07 09:39 24.23227 57.26319 19804 ft 414 kts 317°
2026-05-07 09:39 24.25326 57.24214 19806 ft 414 kts 317°
2026-05-07 09:39 24.27449 57.22083 19807 ft 414 kts 317°
2026-05-07 09:39 24.29563 57.19953 19806 ft 414 kts 317°
2026-05-07 09:40 24.31679 57.17810 19807 ft 414 kts 317°
2026-05-07 09:40 24.33788 57.15668 19810 ft 413 kts 317°
2026-05-07 09:40 24.35921 57.13497 19812 ft 413 kts 317°
2026-05-07 09:40 24.38028 57.11356 19811 ft 413 kts 317°
2026-05-07 09:41 24.40138 57.09209 19812 ft 413 kts 317°
2026-05-07 09:41 24.42218 57.07090 19810 ft 413 kts 317°
2026-05-07 09:41 24.44318 57.04949 19807 ft 413 kts 317°
2026-05-07 09:41 24.46427 57.02798 19806 ft 413 kts 317°
2026-05-07 09:42 24.48530 57.00652 19810 ft 413 kts 317°
2026-05-07 09:42 24.50636 56.98502 19807 ft 413 kts 317°
2026-05-07 09:42 24.52740 56.96357 19803 ft 413 kts 317°
2026-05-07 09:42 24.54847 56.94210 19804 ft 413 kts 317°
2026-05-07 09:43 24.56956 56.92059 19805 ft 413 kts 317°
2026-05-07 09:43 24.59062 56.89909 19801 ft 413 kts 317°
2026-05-07 09:43 24.61171 56.87754 19803 ft 413 kts 317°
2026-05-07 09:43 24.63264 56.85599 19806 ft 413 kts 314°
2026-05-07 09:44 24.65115 56.83180 19803 ft 413 kts 304°
2026-05-07 09:44 24.66630 56.80497 19796 ft 413 kts 301°
2026-05-07 09:44 24.68109 56.77799 19797 ft 413 kts 301°
2026-05-07 09:44 24.69531 56.75214 19799 ft 413 kts 302°
2026-05-07 09:45 24.70059 56.74321 19797 ft 413 kts 306°
2026-05-07 09:46 24.71426 56.72759 19423 ft 419 kts 322°
2026-05-07 09:46 24.73686 56.70957 20088 ft 398 kts 320°
2026-05-07 09:46 24.75733 56.68804 20017 ft 412 kts 311°
2026-05-07 09:46 24.76943 56.67209 19905 ft 412 kts 308°
2026-05-07 09:47 24.78298 56.65239 19834 ft 412 kts 306°
2026-05-07 09:47 24.79948 56.62795 19611 ft 400 kts 307°
2026-05-07 09:47 24.81644 56.60409 19382 ft 393 kts 309°
2026-05-07 09:47 24.82827 56.58846 19230 ft 392 kts 310°
2026-05-07 09:48 24.83183 56.58391 19177 ft 391 kts 311°
2026-05-07 09:48 24.84880 56.56249 18943 ft 378 kts 311°
2026-05-07 09:48 24.86668 56.54109 18332 ft 380 kts 313°
2026-05-07 09:48 24.88486 56.52002 17785 ft 379 kts 314°
2026-05-07 09:49 24.90301 56.49909 17264 ft 377 kts 314°
2026-05-07 09:49 24.92080 56.47842 16764 ft 374 kts 314°
2026-05-07 09:49 24.93861 56.45748 16257 ft 373 kts 313°
2026-05-07 09:49 24.95621 56.43656 15746 ft 372 kts 313°
2026-05-07 09:50 24.97367 56.41564 15245 ft 371 kts 313°
2026-05-07 09:50 24.99108 56.39468 14730 ft 371 kts 313°
2026-05-07 09:50 25.00850 56.37370 14218 ft 371 kts 313°
2026-05-07 09:50 25.02599 56.35264 13695 ft 371 kts 313°
2026-05-07 09:51 25.04342 56.33170 13135 ft 372 kts 313°
2026-05-07 09:51 25.06070 56.31096 12613 ft 370 kts 313°
2026-05-07 09:51 25.07820 56.28992 12213 ft 365 kts 313°
2026-05-07 09:51 25.09467 56.26879 11967 ft 370 kts 303°
2026-05-07 09:52 25.10507 56.24311 11919 ft 367 kts 285°
2026-05-07 09:52 25.11008 56.22178 11629 ft 365 kts 283°
2026-05-07 09:52 25.11581 56.19536 11149 ft 361 kts 282°
2026-05-07 09:52 25.12177 56.16767 10666 ft 357 kts 282°